Lawrenceville, GA

2:12 PM EDT on October 21, 2019 (GMT -0400)
Gwinnett County-Briscoe

Weather History for KLZU - September, 2019

Change the Weather History Date:

Tuesday, September 17, 2019

  Actual Average (KWDR) Record (KWDR)
Temperature  
Mean Temperature 82 °F -  
Max Temperature 97 °F 81 °F 92 °F (1991)
Min Temperature 68 °F 61 °F -31 °F (2013)
Cooling Degree Days 16    
Growing Degree Days 32 (Base 50)    
Moisture  
Dew Point 67 °F    
Average Humidity 68    
Maximum Humidity 96    
Minimum Humidity 37    
Precipitation  
Precipitation 0.00 in - - ()
Sea Level Pressure  
Sea Level Pressure 30.00 in    
Wind  
Wind Speed 1 mph (WSW)    
Max Wind Speed 7 mph    
Max Gust Speed -    
Visibility 9 miles    
Events      
Averages and records for this station are not official NWS values.
T = Trace of Precipitation, MM = Missing Value Source: NWS Daily Summary

Daily Weather History Graph

Daily Weather History Graph

Search for Another Location

Airport or City:

Astronomy

Sep. 17, 2019 Rise Set
Actual Time 7:20 AM EDT 7:39 PM EDT
Civil Twilight 6:55 AM EDT 8:04 PM EDT
Nautical Twilight 6:25 AM EDT 8:34 PM EDT
Astronomical Twilight 5:56 AM EDT 9:03 PM EDT
Moon 9:50 PM EDT (9/17) 10:16 AM EDT (9/17)
Length of Visible Light 13h 09m
Length of Day
12h 19m
Waning Gibbous, 89% of the Moon is Illuminated
Sep 17
Waning Gibbous
Sep 21
Last Quarter
Sep 28
New
Oct 5
First Quarter
Oct 13
Full

Hourly Weather History & Observations

Time (EDT) Temp. Heat Index Dew Point Humidity Pressure Visibility Wind Dir Wind Speed Gust Speed Precip Events Conditions
12:56 AM 70.0 °F - 68.0 °F 93% 30.03 in 10.0 mi Calm Calm - N/A   Clear
1:56 AM 69.1 °F - 66.9 °F 93% 30.02 in 10.0 mi Calm Calm - N/A   Clear
2:56 AM 68.0 °F - 66.9 °F 96% 30.01 in 10.0 mi Calm Calm - N/A   Clear
3:56 AM 68.0 °F - 66.9 °F 96% 30.00 in 10.0 mi Calm Calm - N/A   Clear
5:56 AM 68.0 °F - 64.9 °F 90% 30.00 in 10.0 mi Calm Calm - N/A   Clear
6:22 AM 68.0 °F - 64.4 °F 88% 30.01 in 2.5 mi Calm Calm - N/A   Clear
6:29 AM 68.0 °F - 64.4 °F 88% 30.01 in 4.0 mi Calm Calm - N/A   Clear
6:56 AM 69.1 °F - 64.0 °F 84% 30.02 in 10.0 mi Calm Calm - N/A   Clear
7:56 AM 70.0 °F - 66.9 °F 90% 30.03 in 10.0 mi Calm Calm - N/A   Clear
8:56 AM 77.0 °F - 68.0 °F 74% 30.04 in 10.0 mi Calm Calm - N/A   Scattered Clouds
9:56 AM 82.0 °F 84.9 °F 68.0 °F 62% 30.05 in 10.0 mi Calm Calm - N/A   Clear
10:56 AM 89.1 °F 92.9 °F 68.0 °F 50% 30.05 in 10.0 mi Variable 3.5 mph - N/A   Clear
12:56 PM 91.9 °F 94.5 °F 66.0 °F 42% 30.03 in 7.0 mi Variable 5.8 mph - N/A   Partly Cloudy
1:56 PM 93.0 °F 94.6 °F 64.0 °F 38% 30.01 in 7.0 mi Calm Calm - N/A   Partly Cloudy
2:56 PM 95.0 °F 97.4 °F 64.9 °F 37% 29.98 in 10.0 mi WSW 6.9 mph - N/A   Partly Cloudy
3:56 PM 93.9 °F 97.5 °F 66.9 °F 41% 29.97 in 7.0 mi Variable 4.6 mph - N/A   Scattered Clouds
4:56 PM 91.9 °F 95.4 °F 66.9 °F 44% 29.96 in 10.0 mi Variable 4.6 mph - N/A   Scattered Clouds
5:56 PM 93.0 °F 95.9 °F 66.0 °F 41% 29.95 in 10.0 mi Variable 3.5 mph - N/A   Clear
6:38 PM 91.4 °F 94.0 °F 66.2 °F 43% 29.95 in 1.0 mi Calm Calm - N/A   Haze
6:56 PM 90.0 °F 92.8 °F 66.9 °F 46% 29.95 in 10.0 mi Calm Calm - N/A   Clear
7:06 PM 89.6 °F 92.2 °F 66.2 °F 46% 29.96 in 2.5 mi Calm Calm - N/A   Haze
7:14 PM 87.8 °F 91.4 °F 68.0 °F 52% 29.96 in 10.0 mi Calm Calm - N/A   Mostly Cloudy
7:56 PM 82.9 °F 87.0 °F 70.0 °F 65% 29.96 in 10.0 mi Calm Calm - N/A   Clear
8:56 PM 78.1 °F - 72.0 °F 81% 29.97 in 10.0 mi Calm Calm - N/A   Clear
9:56 PM 77.0 °F - 72.0 °F 84% 29.98 in 10.0 mi Calm Calm - N/A   Clear
10:56 PM 75.9 °F - 71.1 °F 85% 29.99 in 10.0 mi Calm Calm - N/A   Clear
11:56 PM 73.9 °F - 71.1 °F 91% 29.99 in 10.0 mi Calm Calm - N/A   Clear